Time,TemperatureF,DewpointF,PressureIn,WindDirection,WindDirectionDegrees,WindSpeedMPH,WindSpeedGustMPH,Humidity,HourlyPrecipIn,Conditions,Clouds,dailyrainin,SoftwareType,DateUTC
2013-05-08 00:00:00,57.2,49.7,30.03,WSW,247,0.0,0.0,76,0.00,,---,0.00,VWS V14.01,2013-05-08 05:00:00,
2013-05-08 00:01:00,57.0,49.5,30.03,WSW,247,0.0,0.0,76,0.00,,---,0.00,VWS V14.01,2013-05-08 05:01:00,
2013-05-08 00:06:00,56.9,49.8,30.02,WSW,247,0.0,0.0,77,0.00,,---,0.00,VWS V14.01,2013-05-08 05:06:00,
2013-05-08 00:10:00,56.8,49.7,30.02,WSW,247,0.0,0.0,77,0.00,,---,0.00,VWS V14.01,2013-05-08 05:10:00,
2013-05-08 00:12:00,56.7,49.6,30.02,WSW,247,0.0,0.0,77,0.00,,---,0.00,VWS V14.01,2013-05-08 05:12:00,
2013-05-08 00:17:00,56.6,49.8,30.02,WSW,247,0.0,0.0,78,0.00,,---,0.00,VWS V14.01,2013-05-08 05:17:00,
2013-05-08 00:20:00,56.5,49.7,30.02,WSW,247,0.0,0.0,78,0.00,,---,0.00,VWS V14.01,2013-05-08 05:20:00,
2013-05-08 00:22:00,56.4,49.6,30.02,WSW,247,0.0,0.0,78,0.00,,---,0.00,VWS V14.01,2013-05-08 05:22:00,
2013-05-08 00:27:00,56.3,49.5,30.02,WSW,247,0.0,0.0,78,0.00,,---,0.00,VWS V14.01,2013-05-08 05:27:00,
2013-05-08 00:30:00,56.2,49.4,30.02,WSW,247,0.0,0.0,78,0.00,,---,0.00,VWS V14.01,2013-05-08 05:30:00,
2013-05-08 00:32:00,56.1,49.3,30.02,WSW,247,0.0,0.0,78,0.00,,---,0.00,VWS V14.01,2013-05-08 05:32:00,
2013-05-08 00:37:00,56.0,49.2,30.02,WSW,247,0.0,0.0,78,0.00,,---,0.00,VWS V14.01,2013-05-08 05:37:00,
2013-05-08 00:40:00,55.9,49.5,30.02,WSW,247,0.0,0.0,79,0.00,,---,0.00,VWS V14.01,2013-05-08 05:40:00,
2013-05-08 00:42:00,55.9,49.5,30.02,WSW,247,0.0,0.0,79,0.00,,---,0.00,VWS V14.01,2013-05-08 05:42:00,
2013-05-08 00:47:00,55.7,49.3,30.02,WSW,247,0.0,0.0,79,0.00,,---,0.00,VWS V14.01,2013-05-08 05:47:00,
2013-05-08 00:50:00,55.7,49.3,30.02,WSW,247,0.0,0.0,79,0.00,,---,0.00,VWS V14.01,2013-05-08 05:50:00,
2013-05-08 00:52:00,55.6,49.2,30.03,WSW,247,0.0,0.0,79,0.00,,---,0.00,VWS V14.01,2013-05-08 05:52:00,
2013-05-08 00:57:00,55.5,49.1,30.03,WSW,247,0.0,0.0,79,0.00,,---,0.00,VWS V14.01,2013-05-08 05:57:00,
2013-05-08 01:00:00,55.5,49.1,30.03,WSW,247,0.0,0.0,79,0.00,,---,0.00,VWS V14.01,2013-05-08 06:00:00,
2013-05-08 01:02:00,55.3,48.9,30.02,WSW,247,0.0,0.0,79,0.00,,---,0.00,VWS V14.01,2013-05-08 06:02:00,
2013-05-08 01:07:00,55.2,48.8,30.02,WSW,247,0.0,0.0,79,0.00,,---,0.00,VWS V14.01,2013-05-08 06:07:00,
2013-05-08 01:10:00,55.1,48.7,30.02,WSW,247,0.0,0.0,79,0.00,,---,0.00,VWS V14.01,2013-05-08 06:10:00,
2013-05-08 01:12:00,55.0,49.0,30.02,WSW,247,0.0,0.0,80,0.00,,---,0.00,VWS V14.01,2013-05-08 06:12:00,
2013-05-08 01:17:00,54.9,48.9,30.03,WSW,247,0.0,0.0,80,0.00,,---,0.00,VWS V14.01,2013-05-08 06:17:00,
2013-05-08 01:20:00,54.9,48.8,30.03,WSW,247,0.0,0.0,80,0.00,,---,0.00,VWS V14.01,2013-05-08 06:20:00,
2013-05-08 01:22:00,54.8,48.8,30.03,WSW,247,0.0,0.0,80,0.00,,---,0.00,VWS V14.01,2013-05-08 06:22:00,
2013-05-08 01:27:00,54.7,49.0,30.03,WSW,247,0.0,0.0,81,0.00,,---,0.00,VWS V14.01,2013-05-08 06:27:00,
2013-05-08 01:30:00,54.6,48.9,30.02,WSW,247,0.0,0.0,81,0.00,,---,0.00,VWS V14.01,2013-05-08 06:30:00,
2013-05-08 01:32:00,54.6,48.9,30.02,WSW,247,0.0,0.0,81,0.00,,---,0.00,VWS V14.01,2013-05-08 06:32:00,
2013-05-08 01:37:00,54.5,48.8,30.02,WSW,247,0.0,0.0,81,0.00,,---,0.00,VWS V14.01,2013-05-08 06:37:00,
2013-05-08 01:40:00,54.5,48.8,30.02,WSW,247,0.0,0.0,81,0.00,,---,0.00,VWS V14.01,2013-05-08 06:40:00,
2013-05-08 01:42:00,54.4,48.7,30.02,WSW,247,0.0,0.0,81,0.00,,---,0.00,VWS V14.01,2013-05-08 06:42:00,
2013-05-08 01:47:00,54.3,48.9,30.02,WSW,247,0.0,0.0,82,0.00,,---,0.00,VWS V14.01,2013-05-08 06:47:00,
2013-05-08 01:50:00,54.3,48.9,30.02,WSW,247,0.0,0.0,82,0.00,,---,0.00,VWS V14.01,2013-05-08 06:50:00,
2013-05-08 01:52:00,54.2,48.8,30.02,WSW,247,0.0,0.0,82,0.00,,---,0.00,VWS V14.01,2013-05-08 06:52:00,
2013-05-08 01:57:00,54.1,48.7,30.02,WSW,247,0.0,0.0,82,0.00,,---,0.00,VWS V14.01,2013-05-08 06:57:00,
2013-05-08 02:00:00,54.1,48.7,30.02,WSW,247,0.0,0.0,82,0.00,,---,0.00,VWS V14.01,2013-05-08 07:00:00,
2013-05-08 02:02:00,54.1,48.7,30.01,WSW,247,0.0,0.0,82,0.00,,---,0.00,VWS V14.01,2013-05-08 07:02:00,
2013-05-08 02:07:00,54.0,48.6,30.02,WSW,247,0.0,0.0,82,0.00,,---,0.00,VWS V14.01,2013-05-08 07:07:00,
2013-05-08 02:10:00,54.0,48.6,30.02,WSW,247,0.0,0.0,82,0.00,,---,0.00,VWS V14.01,2013-05-08 07:10:00,
2013-05-08 02:12:00,53.9,48.5,30.02,WSW,247,0.0,0.0,82,0.00,,---,0.00,VWS V14.01,2013-05-08 07:12:00,
2013-05-08 02:17:00,53.8,48.8,30.02,WSW,247,0.0,0.0,83,0.00,,---,0.00,VWS V14.01,2013-05-08 07:17:00,
2013-05-08 02:20:00,53.8,48.8,30.02,WSW,247,0.0,0.0,83,0.00,,---,0.00,VWS V14.01,2013-05-08 07:20:00,
2013-05-08 02:22:00,53.7,48.7,30.02,WSW,247,0.0,0.0,83,0.00,,---,0.00,VWS V14.01,2013-05-08 07:22:00,
2013-05-08 02:27:00,53.6,48.9,30.02,WSW,247,0.0,0.0,84,0.00,,---,0.00,VWS V14.01,2013-05-08 07:27:00,
2013-05-08 02:30:00,53.6,48.6,30.02,WSW,247,0.0,0.0,83,0.00,,---,0.00,VWS V14.01,2013-05-08 07:30:00,
2013-05-08 02:32:00,53.6,48.9,30.02,WSW,247,0.0,0.0,84,0.00,,---,0.00,VWS V14.01,2013-05-08 07:32:00,
2013-05-08 02:37:00,53.5,48.8,30.02,WSW,247,0.0,0.0,84,0.00,,---,0.00,VWS V14.01,2013-05-08 07:37:00,
2013-05-08 02:40:00,53.5,48.8,30.02,WSW,247,0.0,0.0,84,0.00,,---,0.00,VWS V14.01,2013-05-08 07:40:00,
2013-05-08 02:42:00,53.5,48.8,30.02,WSW,247,0.0,0.0,84,0.00,,---,0.00,VWS V14.01,2013-05-08 07:42:00,
2013-05-08 02:47:00,53.4,48.7,30.02,WSW,247,0.0,0.0,84,0.00,,---,0.00,VWS V14.01,2013-05-08 07:47:00,
2013-05-08 02:50:00,53.4,48.7,30.02,WSW,247,0.0,0.0,84,0.00,,---,0.00,VWS V14.01,2013-05-08 07:50:00,
2013-05-08 02:52:00,53.4,48.7,30.02,WSW,247,0.0,0.0,84,0.00,,---,0.00,VWS V14.01,2013-05-08 07:52:00,
2013-05-08 02:57:00,53.4,49.0,30.02,WSW,247,0.0,0.0,85,0.00,,---,0.00,VWS V14.01,2013-05-08 07:57:00,
2013-05-08 03:00:00,53.4,49.0,30.02,WSW,247,0.0,0.0,85,0.00,,---,0.00,VWS V14.01,2013-05-08 08:00:00,
2013-05-08 03:02:00,53.4,49.0,30.02,WSW,247,0.0,0.0,85,0.00,,---,0.00,VWS V14.01,2013-05-08 08:02:00,
2013-05-08 03:07:00,53.5,49.1,30.02,WSW,247,0.0,0.0,85,0.00,,---,0.00,VWS V14.01,2013-05-08 08:07:00,
2013-05-08 03:10:00,53.5,49.1,30.02,WSW,247,0.0,0.0,85,0.00,,---,0.00,VWS V14.01,2013-05-08 08:10:00,
2013-05-08 03:13:00,53.5,49.1,30.02,WSW,247,0.0,0.0,85,0.00,,---,0.00,VWS V14.01,2013-05-08 08:13:00,
2013-05-08 03:18:00,53.6,49.5,30.02,WSW,247,0.0,0.0,86,0.00,,---,0.00,VWS V14.01,2013-05-08 08:18:00,
2013-05-08 03:20:00,53.6,49.5,30.02,WSW,247,0.0,0.0,86,0.00,,---,0.00,VWS V14.01,2013-05-08 08:20:00,
2013-05-08 03:23:00,53.7,49.6,30.02,WSW,247,0.0,0.0,86,0.00,,---,0.00,VWS V14.01,2013-05-08 08:23:00,
2013-05-08 03:28:00,53.7,49.6,30.02,WSW,247,0.0,0.0,86,0.00,,---,0.00,VWS V14.01,2013-05-08 08:28:00,
2013-05-08 03:30:00,53.7,49.6,30.02,WSW,247,0.0,0.0,86,0.00,,---,0.00,VWS V14.01,2013-05-08 08:30:00,
2013-05-08 03:33:00,53.8,49.7,30.02,WSW,247,0.0,0.0,86,0.00,,---,0.00,VWS V14.01,2013-05-08 08:33:00,
2013-05-08 03:38:00,53.9,49.8,30.02,WSW,247,0.0,0.0,86,0.00,,---,0.00,VWS V14.01,2013-05-08 08:38:00,
2013-05-08 03:40:00,53.9,49.8,30.02,WSW,247,0.0,0.0,86,0.00,,---,0.00,VWS V14.01,2013-05-08 08:40:00,
2013-05-08 03:43:00,54.0,49.9,30.01,WSW,247,0.0,0.0,86,0.00,,---,0.00,VWS V14.01,2013-05-08 08:43:00,
2013-05-08 03:48:00,54.1,50.0,30.01,WSW,247,0.0,0.0,86,0.00,,---,0.00,VWS V14.01,2013-05-08 08:48:00,
2013-05-08 03:50:00,54.1,50.0,30.01,WSW,247,0.0,0.0,86,0.00,,---,0.00,VWS V14.01,2013-05-08 08:50:00,
2013-05-08 03:53:00,54.2,50.1,30.01,WSW,247,0.0,0.0,86,0.00,,---,0.00,VWS V14.01,2013-05-08 08:53:00,
2013-05-08 03:58:00,54.3,50.2,30.01,WSW,247,0.0,0.0,86,0.00,,---,0.00,VWS V14.01,2013-05-08 08:58:00,
2013-05-08 04:00:00,54.3,50.2,30.01,WSW,247,0.0,0.0,86,0.00,,---,0.00,VWS V14.01,2013-05-08 09:00:00,
2013-05-08 04:03:00,54.4,50.3,30.01,WSW,247,0.0,0.0,86,0.00,,---,0.00,VWS V14.01,2013-05-08 09:03:00,
2013-05-08 04:08:00,54.5,50.4,30.02,WSW,247,0.0,0.0,86,0.00,,---,0.00,VWS V14.01,2013-05-08 09:08:00,
2013-05-08 04:10:00,54.5,50.4,30.02,WSW,247,0.0,0.0,86,0.00,,---,0.00,VWS V14.01,2013-05-08 09:10:00,
2013-05-08 04:13:00,54.6,50.5,30.02,WSW,247,0.0,0.0,86,0.00,,---,0.00,VWS V14.01,2013-05-08 09:13:00,
2013-05-08 04:18:00,54.7,50.3,30.02,WSW,247,0.0,0.0,85,0.00,,---,0.00,VWS V14.01,2013-05-08 09:18:00,
2013-05-08 04:20:00,54.7,50.3,30.02,WSW,247,0.0,0.0,85,0.00,,---,0.00,VWS V14.01,2013-05-08 09:20:00,
2013-05-08 04:23:00,54.9,50.5,30.02,WSW,247,0.0,0.0,85,0.00,,---,0.00,VWS V14.01,2013-05-08 09:23:00,
2013-05-08 04:28:00,55.0,50.6,30.02,WSW,247,0.0,0.0,85,0.00,,---,0.00,VWS V14.01,2013-05-08 09:28:00,
2013-05-08 04:30:00,55.0,50.6,30.02,WSW,247,0.0,0.0,85,0.00,,---,0.00,VWS V14.01,2013-05-08 09:30:00,
2013-05-08 04:33:00,55.1,50.7,30.02,WSW,247,0.0,0.0,85,0.00,,---,0.00,VWS V14.01,2013-05-08 09:33:00,
2013-05-08 04:38:00,55.2,50.8,30.02,WSW,247,0.0,0.0,85,0.00,,---,0.00,VWS V14.01,2013-05-08 09:38:00,
2013-05-08 04:40:00,55.2,50.8,30.02,WSW,247,0.0,0.0,85,0.00,,---,0.00,VWS V14.01,2013-05-08 09:40:00,
2013-05-08 04:43:00,55.3,50.9,30.02,WSW,247,0.0,0.0,85,0.00,,---,0.00,VWS V14.01,2013-05-08 09:43:00,
2013-05-08 04:48:00,55.4,51.0,30.02,WSW,247,0.0,0.0,85,0.00,,---,0.00,VWS V14.01,2013-05-08 09:48:00,
2013-05-08 04:50:00,55.4,51.0,30.02,WSW,247,0.0,0.0,85,0.00,,---,0.00,VWS V14.01,2013-05-08 09:50:00,
2013-05-08 04:53:00,55.5,51.1,30.02,WSW,247,0.0,0.0,85,0.00,,---,0.00,VWS V14.01,2013-05-08 09:53:00,
2013-05-08 04:58:00,55.7,51.3,30.02,WSW,247,0.0,0.0,85,0.00,,---,0.00,VWS V14.01,2013-05-08 09:58:00,
2013-05-08 05:00:00,55.6,51.2,30.02,WSW,247,0.0,0.0,85,0.00,,---,0.00,VWS V14.01,2013-05-08 10:00:00,
2013-05-08 05:03:00,55.8,51.4,30.02,WSW,247,0.0,1.0,85,0.00,,---,0.00,VWS V14.01,2013-05-08 10:03:00,
2013-05-08 05:08:00,55.9,51.1,30.02,WSW,247,0.0,0.0,84,0.00,,---,0.00,VWS V14.01,2013-05-08 10:08:00,
2013-05-08 05:10:00,55.9,51.1,30.02,WSW,247,0.0,1.0,84,0.00,,---,0.00,VWS V14.01,2013-05-08 10:10:00,
2013-05-08 05:13:00,56.0,51.2,30.02,WSW,247,0.0,0.0,84,0.00,,---,0.00,VWS V14.01,2013-05-08 10:13:00,
2013-05-08 05:18:00,56.1,51.3,30.02,WSW,247,0.0,0.0,84,0.00,,---,0.00,VWS V14.01,2013-05-08 10:18:00,
2013-05-08 05:20:00,56.1,51.3,30.02,WSW,247,0.0,0.0,84,0.00,,---,0.00,VWS V14.01,2013-05-08 10:20:00,
2013-05-08 05:23:00,56.2,51.1,30.02,WSW,247,0.0,1.0,83,0.00,,---,0.00,VWS V14.01,2013-05-08 10:23:00,
2013-05-08 05:28:00,56.3,51.2,30.02,WSW,242,1.0,1.0,83,0.00,,---,0.00,VWS V14.01,2013-05-08 10:28:00,
2013-05-08 05:30:00,56.3,51.2,30.02,WSW,242,0.0,1.0,83,0.00,,---,0.00,VWS V14.01,2013-05-08 10:30:00,
2013-05-08 05:33:00,56.6,51.5,30.03,WSW,242,0.0,2.0,83,0.00,,---,0.00,VWS V14.01,2013-05-08 10:33:00,
2013-05-08 05:38:00,56.8,51.4,30.03,WSW,242,0.0,0.0,82,0.00,,---,0.00,VWS V14.01,2013-05-08 10:38:00,
2013-05-08 05:40:00,56.8,51.4,30.03,WSW,242,0.0,2.0,82,0.00,,---,0.00,VWS V14.01,2013-05-08 10:40:00,
2013-05-08 05:43:00,57.1,51.7,30.02,WSW,242,1.0,1.0,82,0.00,,---,0.00,VWS V14.01,2013-05-08 10:43:00,
2013-05-08 05:48:00,57.3,51.5,30.02,WSW,242,2.0,2.0,81,0.00,,---,0.00,VWS V14.01,2013-05-08 10:48:00,
2013-05-08 05:50:00,57.3,51.5,30.02,WSW,242,0.0,1.0,81,0.00,,---,0.00,VWS V14.01,2013-05-08 10:50:00,
2013-05-08 05:53:00,57.6,51.8,30.03,WSW,242,0.0,2.0,81,0.00,,---,0.00,VWS V14.01,2013-05-08 10:53:00,
2013-05-08 05:58:00,57.9,52.1,30.02,WSW,242,0.0,0.0,81,0.00,,---,0.00,VWS V14.01,2013-05-08 10:58:00,
2013-05-08 06:00:00,57.8,52.0,30.02,WSW,242,0.0,2.0,81,0.00,,---,0.00,VWS V14.01,2013-05-08 11:00:00,
2013-05-08 06:04:00,58.1,52.6,30.02,WSW,242,0.0,0.0,82,0.00,,---,0.00,VWS V14.01,2013-05-08 11:04:00,
2013-05-08 06:09:00,58.2,52.4,30.03,WSW,242,0.0,0.0,81,0.00,,---,0.00,VWS V14.01,2013-05-08 11:09:00,
2013-05-08 06:10:00,58.2,52.4,30.03,WSW,242,0.0,2.0,81,0.00,,---,0.00,VWS V14.01,2013-05-08 11:10:00,
2013-05-08 06:14:00,58.3,52.8,30.03,WSW,242,0.0,0.0,82,0.00,,---,0.00,VWS V14.01,2013-05-08 11:14:00,
2013-05-08 06:19:00,58.4,52.9,30.02,WSW,242,0.0,0.0,82,0.00,,---,0.00,VWS V14.01,2013-05-08 11:19:00,
2013-05-08 06:20:00,58.4,52.9,30.02,WSW,242,0.0,1.0,82,0.00,,---,0.00,VWS V14.01,2013-05-08 11:20:00,
2013-05-08 06:24:00,58.5,53.0,30.03,WSW,242,0.0,1.0,82,0.00,,---,0.00,VWS V14.01,2013-05-08 11:24:00,
2013-05-08 06:29:00,58.5,53.4,30.03,WSW,242,0.0,0.0,83,0.00,,---,0.00,VWS V14.01,2013-05-08 11:29:00,
2013-05-08 06:30:00,58.5,53.4,30.03,WSW,242,0.0,1.0,83,0.00,,---,0.00,VWS V14.01,2013-05-08 11:30:00,
2013-05-08 06:34:00,58.5,53.7,30.03,WSW,242,0.0,1.0,84,0.00,,---,0.00,VWS V14.01,2013-05-08 11:34:00,
2013-05-08 06:39:00,58.5,54.0,30.02,WSW,242,0.0,0.0,85,0.00,,---,0.00,VWS V14.01,2013-05-08 11:39:00,
2013-05-08 06:40:00,58.5,53.7,30.02,WSW,242,0.0,2.0,84,0.00,,---,0.00,VWS V14.01,2013-05-08 11:40:00,
2013-05-08 06:44:00,58.5,54.0,30.02,WSW,240,0.0,2.0,85,0.00,,---,0.00,VWS V14.01,2013-05-08 11:44:00,
2013-05-08 06:49:00,58.5,54.3,30.02,WSW,240,0.0,0.0,86,0.00,,---,0.00,VWS V14.01,2013-05-08 11:49:00,
2013-05-08 06:50:00,58.6,54.4,30.02,WSW,240,0.0,2.0,86,0.00,,---,0.00,VWS V14.01,2013-05-08 11:50:00,
2013-05-08 06:54:00,58.5,54.7,30.02,WSW,240,0.0,1.0,87,0.00,,---,0.00,VWS V14.01,2013-05-08 11:54:00,
2013-05-08 06:59:00,58.6,54.8,30.02,WSW,240,0.0,0.0,87,0.00,,---,0.00,VWS V14.01,2013-05-08 11:59:00,
2013-05-08 07:00:00,58.6,54.8,30.02,WSW,240,0.0,1.0,87,0.00,,---,0.00,VWS V14.01,2013-05-08 12:00:00,
2013-05-08 07:04:00,58.6,55.1,30.02,WSW,240,0.0,2.0,88,0.00,,---,0.00,VWS V14.01,2013-05-08 12:04:00,
2013-05-08 07:09:00,58.6,55.1,30.02,SE,146,0.0,1.0,88,0.00,,---,0.00,VWS V14.01,2013-05-08 12:09:00,
2013-05-08 07:10:00,58.6,55.1,30.02,SE,146,0.0,2.0,88,0.00,,---,0.00,VWS V14.01,2013-05-08 12:10:00,
2013-05-08 07:14:00,58.6,55.1,30.02,SE,146,0.0,1.0,88,0.00,,---,0.00,VWS V14.01,2013-05-08 12:14:00,
2013-05-08 07:19:00,58.6,55.4,30.02,SE,146,0.0,0.0,89,0.00,,---,0.00,VWS V14.01,2013-05-08 12:19:00,
2013-05-08 07:20:00,58.6,55.4,30.02,SE,146,0.0,1.0,89,0.00,,---,0.00,VWS V14.01,2013-05-08 12:20:00,
2013-05-08 07:24:00,58.6,55.4,30.02,SE,146,0.0,1.0,89,0.00,,---,0.00,VWS V14.01,2013-05-08 12:24:00,
2013-05-08 07:29:00,58.6,55.4,30.02,SE,146,0.0,0.0,89,0.00,,---,0.00,VWS V14.01,2013-05-08 12:29:00,
2013-05-08 07:30:00,58.6,55.4,30.01,SE,146,0.0,1.0,89,0.00,,---,0.00,VWS V14.01,2013-05-08 12:30:00,
2013-05-08 07:34:00,58.6,55.4,30.02,SE,146,0.0,1.0,89,0.01,,---,0.01,VWS V14.01,2013-05-08 12:34:00,
2013-05-08 07:39:00,58.7,55.5,30.02,SSW,198,0.0,1.0,89,0.01,,---,0.01,VWS V14.01,2013-05-08 12:39:00,
2013-05-08 07:40:00,58.7,55.5,30.02,South,182,0.0,2.0,89,0.01,,---,0.01,VWS V14.01,2013-05-08 12:40:00,
2013-05-08 07:44:00,58.7,55.5,30.02,SSW,198,0.0,1.0,89,0.01,,---,0.01,VWS V14.01,2013-05-08 12:44:00,
2013-05-08 07:49:00,58.8,55.9,30.02,SSW,198,0.0,0.0,90,0.01,,---,0.01,VWS V14.01,2013-05-08 12:49:00,
2013-05-08 07:50:00,58.7,55.8,30.02,SSW,198,0.0,1.0,90,0.01,,---,0.01,VWS V14.01,2013-05-08 12:50:00,
2013-05-08 07:54:00,58.9,56.0,30.02,SSW,198,0.0,0.0,90,0.01,,---,0.01,VWS V14.01,2013-05-08 12:54:00,
2013-05-08 07:59:00,59.0,56.1,30.02,SSW,198,0.0,0.0,90,0.01,,---,0.01,VWS V14.01,2013-05-08 12:59:00,
2013-05-08 08:00:00,58.9,56.0,30.03,SSW,198,0.0,0.0,90,0.01,,---,0.01,VWS V14.01,2013-05-08 13:00:00,
2013-05-08 08:04:00,59.1,56.2,30.03,SSW,198,0.0,0.0,90,0.01,,---,0.01,VWS V14.01,2013-05-08 13:04:00,
2013-05-08 08:09:00,59.2,56.3,30.03,SSW,198,0.0,0.0,90,0.01,,---,0.01,VWS V14.01,2013-05-08 13:09:00,
2013-05-08 08:10:00,59.2,56.3,30.03,SSW,198,0.0,0.0,90,0.01,,---,0.01,VWS V14.01,2013-05-08 13:10:00,
2013-05-08 08:14:00,59.3,56.4,30.02,SSW,198,0.0,1.0,90,0.01,,---,0.01,VWS V14.01,2013-05-08 13:14:00,
2013-05-08 08:19:00,59.5,56.6,30.02,SSW,198,0.0,0.0,90,0.01,,---,0.01,VWS V14.01,2013-05-08 13:19:00,
2013-05-08 08:20:00,59.5,56.6,30.02,SSW,198,0.0,1.0,90,0.01,,---,0.01,VWS V14.01,2013-05-08 13:20:00,
2013-05-08 08:24:00,59.7,56.8,30.03,SSW,198,0.0,0.0,90,0.01,,---,0.01,VWS V14.01,2013-05-08 13:24:00,
2013-05-08 08:29:00,59.9,56.7,30.03,SSW,198,0.0,0.0,89,0.01,,---,0.01,VWS V14.01,2013-05-08 13:29:00,
2013-05-08 08:30:00,59.9,57.0,30.03,SSW,198,0.0,1.0,90,0.01,,---,0.01,VWS V14.01,2013-05-08 13:30:00,
2013-05-08 08:34:00,60.1,56.8,30.03,SSW,198,0.0,1.0,89,0.01,,---,0.01,VWS V14.01,2013-05-08 13:34:00,
2013-05-08 08:39:00,60.2,56.6,30.03,SSW,198,0.0,0.0,88,0.00,,---,0.01,VWS V14.01,2013-05-08 13:39:00,
2013-05-08 08:40:00,60.2,56.6,30.03,SSW,198,0.0,1.0,88,0.01,,---,0.01,VWS V14.01,2013-05-08 13:40:00,
2013-05-08 08:44:00,60.3,56.4,30.03,SSW,198,0.0,1.0,87,0.00,,---,0.01,VWS V14.01,2013-05-08 13:44:00,
2013-05-08 08:49:00,60.4,56.5,30.03,SSW,198,0.0,0.0,87,0.00,,---,0.01,VWS V14.01,2013-05-08 13:49:00,
2013-05-08 08:50:00,60.4,56.5,30.03,SSW,198,0.0,1.0,87,0.00,,---,0.01,VWS V14.01,2013-05-08 13:50:00,
2013-05-08 08:54:00,60.5,56.6,30.03,SSW,198,0.0,0.0,87,0.00,,---,0.01,VWS V14.01,2013-05-08 13:54:00,
2013-05-08 08:59:00,60.6,56.1,30.03,SSW,198,0.0,0.0,85,0.00,,---,0.01,VWS V14.01,2013-05-08 13:59:00,
2013-05-08 09:00:00,60.6,56.4,30.03,SSW,198,0.0,1.0,86,0.00,,---,0.01,VWS V14.01,2013-05-08 14:00:00,
2013-05-08 09:05:00,60.8,56.6,30.03,SSW,198,0.0,0.0,86,0.00,,---,0.01,VWS V14.01,2013-05-08 14:05:00,
2013-05-08 09:10:00,61.0,56.8,30.03,SSW,198,0.0,0.0,86,0.00,,---,0.01,VWS V14.01,2013-05-08 14:10:00,
2013-05-08 09:15:00,61.2,57.0,30.03,SSW,198,0.0,0.0,86,0.00,,---,0.01,VWS V14.01,2013-05-08 14:15:00,
2013-05-08 09:20:00,61.4,56.9,30.03,SSW,198,0.0,0.0,85,0.00,,---,0.01,VWS V14.01,2013-05-08 14:20:00,
2013-05-08 09:25:00,61.6,57.0,30.03,South,190,0.0,1.0,85,0.00,,---,0.01,VWS V14.01,2013-05-08 14:25:00,
2013-05-08 09:30:00,61.9,57.0,30.03,South,190,0.0,0.0,84,0.00,,---,0.01,VWS V14.01,2013-05-08 14:30:00,
2013-05-08 09:35:00,62.2,57.3,30.03,South,190,0.0,1.0,84,0.00,,---,0.01,VWS V14.01,2013-05-08 14:35:00,
2013-05-08 09:40:00,62.5,57.6,30.03,South,190,0.0,0.0,84,0.00,,---,0.01,VWS V14.01,2013-05-08 14:40:00,
2013-05-08 09:45:00,62.9,58.0,30.03,South,190,0.0,1.0,84,0.00,,---,0.01,VWS V14.01,2013-05-08 14:45:00,
2013-05-08 09:50:00,63.4,58.2,30.03,South,190,0.0,1.0,83,0.00,,---,0.01,VWS V14.01,2013-05-08 14:50:00,
2013-05-08 09:55:00,64.0,58.4,30.03,East,96,0.0,2.0,82,0.00,,---,0.01,VWS V14.01,2013-05-08 14:55:00,
2013-05-08 10:00:00,64.7,58.4,30.03,West,263,1.0,3.0,80,0.00,,---,0.01,VWS V14.01,2013-05-08 15:00:00,
2013-05-08 10:05:00,65.2,58.5,30.02,SW,234,2.0,6.0,79,0.00,,---,0.01,VWS V14.01,2013-05-08 15:05:00,
2013-05-08 10:10:00,65.9,58.9,30.03,SW,234,0.0,3.0,78,0.00,,---,0.01,VWS V14.01,2013-05-08 15:10:00,
2013-05-08 10:15:00,66.8,59.7,30.03,ENE,73,0.0,3.0,78,0.00,,---,0.01,VWS V14.01,2013-05-08 15:15:00,
2013-05-08 10:20:00,67.9,59.7,30.02,SW,215,0.0,5.0,75,0.00,,---,0.01,VWS V14.01,2013-05-08 15:20:00,
2013-05-08 10:25:00,68.5,59.1,30.02,SW,229,0.0,8.0,72,0.00,,---,0.01,VWS V14.01,2013-05-08 15:25:00,
2013-05-08 10:30:00,68.9,59.1,30.02,SSE,148,2.0,10.0,71,0.00,,---,0.01,VWS V14.01,2013-05-08 15:30:00,
2013-05-08 10:35:00,69.0,58.8,30.02,WSW,251,0.0,10.0,70,0.00,,---,0.01,VWS V14.01,2013-05-08 15:35:00,
2013-05-08 10:40:00,69.3,59.1,30.02,South,182,0.0,3.0,70,0.00,,---,0.01,VWS V14.01,2013-05-08 15:40:00,
2013-05-08 10:45:00,69.6,59.8,30.02,SSE,150,0.0,3.0,71,0.00,,---,0.01,VWS V14.01,2013-05-08 15:45:00,
2013-05-08 10:50:00,70.2,59.6,30.02,SSW,212,2.0,3.0,69,0.00,,---,0.01,VWS V14.01,2013-05-08 15:50:00,
2013-05-08 10:55:00,70.9,59.8,30.02,NE,44,1.0,3.0,68,0.00,,---,0.01,VWS V14.01,2013-05-08 15:55:00,
2013-05-08 11:00:00,71.7,60.2,30.02,South,187,3.0,4.0,67,0.00,,---,0.01,VWS V14.01,2013-05-08 16:00:00,
2013-05-08 11:05:00,72.5,59.6,30.02,SW,236,3.0,11.0,64,0.00,,---,0.01,VWS V14.01,2013-05-08 16:05:00,
2013-05-08 11:10:00,73.2,59.0,30.02,SW,215,3.0,11.0,61,0.00,,---,0.01,VWS V14.01,2013-05-08 16:10:00,
2013-05-08 11:15:00,73.7,59.9,30.03,NNE,27,1.0,11.0,62,0.00,,---,0.01,VWS V14.01,2013-05-08 16:15:00,
2013-05-08 11:20:00,73.9,59.6,30.03,WSW,246,4.0,6.0,61,0.00,,---,0.01,VWS V14.01,2013-05-08 16:20:00,
2013-05-08 11:25:00,73.9,59.2,30.03,SSW,194,5.0,8.0,60,0.00,,---,0.01,VWS V14.01,2013-05-08 16:25:00,
2013-05-08 11:30:00,74.1,59.8,30.03,SW,216,4.0,7.0,61,0.00,,---,0.01,VWS V14.01,2013-05-08 16:30:00,
2013-05-08 11:35:00,74.7,60.4,30.03,West,278,0.0,7.0,61,0.00,,---,0.01,VWS V14.01,2013-05-08 16:35:00,
2013-05-08 11:40:00,75.2,59.9,30.02,SE,139,1.0,7.0,59,0.00,,---,0.01,VWS V14.01,2013-05-08 16:40:00,
2013-05-08 11:45:00,75.4,60.6,30.02,SW,229,0.0,7.0,60,0.00,,---,0.01,VWS V14.01,2013-05-08 16:45:00,
2013-05-08 11:50:00,75.9,61.0,30.02,WSW,246,5.0,6.0,60,0.00,,---,0.01,VWS V14.01,2013-05-08 16:50:00,
2013-05-08 11:55:00,76.4,60.5,30.02,SE,138,1.0,6.0,58,0.00,,---,0.01,VWS V14.01,2013-05-08 16:55:00,
2013-05-08 12:00:00,76.6,59.8,30.02,South,188,1.0,3.0,56,0.00,,---,0.01,VWS V14.01,2013-05-08 17:00:00,
2013-05-08 12:05:00,76.8,59.4,30.02,WSW,242,0.0,5.0,55,0.00,,---,0.01,VWS V14.01,2013-05-08 17:05:00,
2013-05-08 12:10:00,76.8,58.9,30.01,SSW,200,5.0,12.0,54,0.00,,---,0.01,VWS V14.01,2013-05-08 17:10:00,
2013-05-08 12:11:00,76.8,59.9,30.02,West,260,2.0,11.0,56,0.00,,---,0.01,VWS V14.01,2013-05-08 17:11:00,
2013-05-08 12:16:00,76.7,59.3,30.01,SW,220,1.0,11.0,55,0.00,,---,0.01,VWS V14.01,2013-05-08 17:16:00,
2013-05-08 12:20:00,76.6,59.2,30.01,SW,231,1.0,11.0,55,0.00,,---,0.01,VWS V14.01,2013-05-08 17:20:00,
2013-05-08 12:21:00,76.6,59.8,30.01,SW,236,7.0,8.0,56,0.00,,---,0.01,VWS V14.01,2013-05-08 17:21:00,
2013-05-08 12:26:00,76.6,59.2,30.01,South,181,3.0,8.0,55,0.00,,---,0.01,VWS V14.01,2013-05-08 17:26:00,
2013-05-08 12:30:00,76.7,59.3,30.01,WSW,254,7.0,8.0,55,0.00,,---,0.01,VWS V14.01,2013-05-08 17:30:00,
2013-05-08 12:31:00,76.6,59.2,30.01,SSW,200,0.0,10.0,55,0.00,,---,0.01,VWS V14.01,2013-05-08 17:31:00,
2013-05-08 12:36:00,76.6,59.2,30.01,ESE,114,2.0,10.0,55,0.00,,---,0.01,VWS V14.01,2013-05-08 17:36:00,
2013-05-08 12:40:00,76.5,59.2,30.01,SE,125,1.0,10.0,55,0.00,,---,0.01,VWS V14.01,2013-05-08 17:40:00,
2013-05-08 12:41:00,76.5,59.7,30.00,ESE,103,1.0,4.0,56,0.00,,---,0.01,VWS V14.01,2013-05-08 17:41:00,
2013-05-08 12:46:00,76.2,58.9,30.00,South,191,0.0,4.0,55,0.00,,---,0.01,VWS V14.01,2013-05-08 17:46:00,
2013-05-08 12:50:00,76.0,59.2,30.00,NNW,331,2.0,5.0,56,0.00,,---,0.01,VWS V14.01,2013-05-08 17:50:00,
2013-05-08 12:51:00,75.8,59.0,30.00,NE,34,2.0,4.0,56,0.00,,---,0.01,VWS V14.01,2013-05-08 17:51:00,
2013-05-08 12:56:00,75.7,58.9,30.00,SW,220,2.0,5.0,56,0.00,,---,0.01,VWS V14.01,2013-05-08 17:56:00,
2013-05-08 13:00:00,75.7,58.9,30.00,South,179,0.0,5.0,56,0.00,,---,0.01,VWS V14.01,2013-05-08 18:00:00,
2013-05-08 13:01:00,75.6,58.3,30.00,WSW,245,0.0,4.0,55,0.00,,---,0.01,VWS V14.01,2013-05-08 18:01:00,
2013-05-08 13:06:00,75.6,59.3,30.00,SSW,192,5.0,10.0,57,0.00,,---,0.01,VWS V14.01,2013-05-08 18:06:00,
2013-05-08 13:10:00,75.6,58.8,30.00,SE,142,0.0,10.0,56,0.00,,---,0.01,VWS V14.01,2013-05-08 18:10:00,
2013-05-08 13:11:00,75.6,58.3,30.00,SSW,203,1.0,6.0,55,0.00,,---,0.01,VWS V14.01,2013-05-08 18:11:00,
2013-05-08 13:16:00,75.6,58.8,30.00,SSW,205,1.0,6.0,56,0.00,,---,0.01,VWS V14.01,2013-05-08 18:16:00,
2013-05-08 13:20:00,75.7,58.9,30.00,SSW,211,0.0,6.0,56,0.00,,---,0.01,VWS V14.01,2013-05-08 18:20:00,
2013-05-08 13:21:00,76.0,59.7,30.00,SW,214,3.0,6.0,57,0.00,,---,0.01,VWS V14.01,2013-05-08 18:21:00,
2013-05-08 13:26:00,76.4,59.1,30.00,SE,133,0.0,11.0,55,0.00,,---,0.01,VWS V14.01,2013-05-08 18:26:00,
2013-05-08 13:30:00,76.5,59.2,30.00,SE,133,0.0,11.0,55,0.00,,---,0.01,VWS V14.01,2013-05-08 18:30:00,
2013-05-08 13:31:00,76.8,59.9,30.00,SSW,210,1.0,3.0,56,0.00,,---,0.01,VWS V14.01,2013-05-08 18:31:00,
2013-05-08 13:36:00,77.4,60.5,30.00,NW,317,0.0,5.0,56,0.00,,---,0.01,VWS V14.01,2013-05-08 18:36:00,
2013-05-08 13:40:00,77.7,59.8,30.00,NW,319,0.0,5.0,54,0.00,,---,0.01,VWS V14.01,2013-05-08 18:40:00,
2013-05-08 13:41:00,77.9,59.4,29.99,NE,51,0.0,4.0,53,0.00,,---,0.01,VWS V14.01,2013-05-08 18:41:00,
2013-05-08 13:46:00,78.0,59.5,30.00,East,101,1.0,6.0,53,0.00,,---,0.01,VWS V14.01,2013-05-08 18:46:00,
2013-05-08 13:50:00,78.0,59.5,30.00,West,260,1.0,6.0,53,0.00,,---,0.01,VWS V14.01,2013-05-08 18:50:00,
2013-05-08 13:51:00,78.0,59.0,29.99,SSE,148,0.0,7.0,52,0.00,,---,0.01,VWS V14.01,2013-05-08 18:51:00,
2013-05-08 13:56:00,78.2,59.7,29.99,SW,222,1.0,7.0,53,0.00,,---,0.01,VWS V14.01,2013-05-08 18:56:00,
2013-05-08 14:00:00,78.4,59.9,30.00,SW,226,0.0,7.0,53,0.00,,---,0.01,VWS V14.01,2013-05-08 19:00:00,
2013-05-08 14:01:00,78.8,59.7,30.00,SSW,192,3.0,6.0,52,0.00,,---,0.01,VWS V14.01,2013-05-08 19:01:00,
2013-05-08 14:06:00,79.3,59.6,29.99,WSW,246,1.0,6.0,51,0.00,,---,0.01,VWS V14.01,2013-05-08 19:06:00,
2013-05-08 14:10:00,79.4,59.7,29.99,ENE,70,2.0,6.0,51,0.00,,---,0.01,VWS V14.01,2013-05-08 19:10:00,
2013-05-08 14:11:00,79.5,59.8,29.99,South,173,1.0,4.0,51,0.00,,---,0.01,VWS V14.01,2013-05-08 19:11:00,
2013-05-08 14:16:00,79.8,59.5,29.99,SW,236,0.0,5.0,50,0.00,,---,0.01,VWS V14.01,2013-05-08 19:16:00,
2013-05-08 14:20:00,79.9,60.2,29.99,SW,230,3.0,7.0,51,0.00,,---,0.01,VWS V14.01,2013-05-08 19:20:00,
2013-05-08 14:21:00,80.0,59.1,29.99,WSW,246,1.0,10.0,49,0.00,,---,0.01,VWS V14.01,2013-05-08 19:21:00,
2013-05-08 14:26:00,79.9,59.6,29.99,East,89,2.0,10.0,50,0.00,,---,0.01,VWS V14.01,2013-05-08 19:26:00,
2013-05-08 14:30:00,79.8,59.5,29.99,SSE,158,2.0,10.0,50,0.00,,---,0.01,VWS V14.01,2013-05-08 19:30:00,
2013-05-08 14:31:00,79.6,59.9,29.99,SE,136,0.0,3.0,51,0.00,,---,0.01,VWS V14.01,2013-05-08 19:31:00,
2013-05-08 14:36:00,79.4,59.7,29.99,SW,215,0.0,4.0,51,0.00,,---,0.01,VWS V14.01,2013-05-08 19:36:00,
2013-05-08 14:40:00,79.3,59.1,29.99,NW,318,0.0,5.0,50,0.00,,---,0.01,VWS V14.01,2013-05-08 19:40:00,
2013-05-08 14:41:00,79.2,60.1,29.99,NW,315,0.0,1.0,52,0.00,,---,0.01,VWS V14.01,2013-05-08 19:41:00,
2013-05-08 14:46:00,78.9,59.8,29.99,SSW,203,3.0,4.0,52,0.00,,---,0.01,VWS V14.01,2013-05-08 19:46:00,
2013-05-08 14:50:00,78.9,59.8,29.99,South,180,1.0,6.0,52,0.00,,---,0.01,VWS V14.01,2013-05-08 19:50:00,
2013-05-08 14:51:00,78.8,59.7,29.99,SSW,206,1.0,3.0,52,0.00,,---,0.01,VWS V14.01,2013-05-08 19:51:00,
2013-05-08 14:56:00,78.9,59.2,29.98,SSW,204,3.0,6.0,51,0.00,,---,0.01,VWS V14.01,2013-05-08 19:56:00,
2013-05-08 15:00:00,78.9,59.8,29.98,SSW,207,1.0,6.0,52,0.00,,---,0.01,VWS V14.01,2013-05-08 20:00:00,
2013-05-08 15:01:00,78.7,59.6,29.98,West,264,1.0,3.0,52,0.00,,---,0.01,VWS V14.01,2013-05-08 20:01:00,
2013-05-08 15:06:00,78.5,60.5,29.98,South,171,0.0,4.0,54,0.00,,---,0.01,VWS V14.01,2013-05-08 20:06:00,
2013-05-08 15:10:00,78.5,60.5,29.98,South,181,1.0,4.0,54,0.00,,---,0.01,VWS V14.01,2013-05-08 20:10:00,
2013-05-08 15:11:00,78.4,59.9,29.98,WSW,238,1.0,6.0,53,0.00,,---,0.01,VWS V14.01,2013-05-08 20:11:00,
2013-05-08 15:16:00,78.2,60.2,29.98,South,173,2.0,6.0,54,0.00,,---,0.01,VWS V14.01,2013-05-08 20:16:00,
2013-05-08 15:20:00,78.2,60.2,29.98,SSW,211,1.0,6.0,54,0.00,,---,0.01,VWS V14.01,2013-05-08 20:20:00,
2013-05-08 15:21:00,78.0,60.0,29.97,SE,142,0.0,2.0,54,0.00,,---,0.01,VWS V14.01,2013-05-08 20:21:00,
2013-05-08 15:27:00,78.2,61.2,29.97,SW,224,1.0,7.0,56,0.00,,---,0.01,VWS V14.01,2013-05-08 20:27:00,
2013-05-08 15:30:00,78.3,60.8,29.97,SW,217,1.0,7.0,55,0.00,,---,0.01,VWS V14.01,2013-05-08 20:30:00,
2013-05-08 15:32:00,78.7,60.2,29.97,East,97,2.0,5.0,53,0.00,,---,0.01,VWS V14.01,2013-05-08 20:32:00,
2013-05-08 15:37:00,78.9,60.3,29.97,SW,217,0.0,6.0,53,0.00,,---,0.01,VWS V14.01,2013-05-08 20:37:00,
2013-05-08 15:40:00,79.0,59.9,29.97,WSW,242,0.0,6.0,52,0.00,,---,0.01,VWS V14.01,2013-05-08 20:40:00,
2013-05-08 15:42:00,78.8,59.7,29.98,SW,233,0.0,3.0,52,0.00,,---,0.01,VWS V14.01,2013-05-08 20:42:00,
2013-05-08 15:47:00,78.3,60.3,29.97,South,171,2.0,3.0,54,0.00,,---,0.01,VWS V14.01,2013-05-08 20:47:00,
2013-05-08 15:50:00,78.3,60.8,29.97,South,171,0.0,4.0,55,0.00,,---,0.01,VWS V14.01,2013-05-08 20:50:00,
2013-05-08 15:52:00,78.1,60.1,29.97,SW,217,0.0,8.0,54,0.00,,---,0.01,VWS V14.01,2013-05-08 20:52:00,
2013-05-08 15:57:00,77.9,59.9,29.97,SW,217,0.0,8.0,54,0.00,,---,0.01,VWS V14.01,2013-05-08 20:57:00,
2013-05-08 16:00:00,78.0,60.0,29.97,SW,222,2.0,8.0,54,0.00,,---,0.01,VWS V14.01,2013-05-08 21:00:00,
2013-05-08 16:02:00,77.9,60.5,29.96,SW,234,0.0,5.0,55,0.00,,---,0.01,VWS V14.01,2013-05-08 21:02:00,
2013-05-08 16:07:00,78.0,60.0,29.96,SSW,200,0.0,5.0,54,0.00,,---,0.01,VWS V14.01,2013-05-08 21:07:00,
2013-05-08 16:10:00,78.0,60.5,29.96,SSE,147,0.0,5.0,55,0.00,,---,0.01,VWS V14.01,2013-05-08 21:10:00,
2013-05-08 16:12:00,78.0,60.0,29.96,SSE,150,1.0,4.0,54,0.00,,---,0.01,VWS V14.01,2013-05-08 21:12:00,
2013-05-08 16:17:00,77.9,59.9,29.96,SSE,157,0.0,4.0,54,0.00,,---,0.01,VWS V14.01,2013-05-08 21:17:00,
2013-05-08 16:20:00,77.9,60.5,29.96,SSE,157,0.0,4.0,55,0.00,,---,0.01,VWS V14.01,2013-05-08 21:20:00,
2013-05-08 16:22:00,77.8,59.8,29.96,East,94,1.0,2.0,54,0.00,,---,0.01,VWS V14.01,2013-05-08 21:22:00,
2013-05-08 16:27:00,77.8,60.4,29.95,East,91,2.0,4.0,55,0.00,,---,0.01,VWS V14.01,2013-05-08 21:27:00,
2013-05-08 16:30:00,77.9,59.9,29.95,South,177,2.0,5.0,54,0.00,,---,0.01,VWS V14.01,2013-05-08 21:30:00,
2013-05-08 16:32:00,77.8,59.8,29.95,ESE,118,0.0,3.0,54,0.00,,---,0.01,VWS V14.01,2013-05-08 21:32:00,
2013-05-08 16:37:00,77.7,59.8,29.95,South,190,1.0,3.0,54,0.00,,---,0.01,VWS V14.01,2013-05-08 21:37:00,
2013-05-08 16:40:00,77.6,59.7,29.95,SSE,159,0.0,3.0,54,0.00,,---,0.01,VWS V14.01,2013-05-08 21:40:00,
2013-05-08 16:42:00,77.5,59.6,29.95,West,267,0.0,4.0,54,0.00,,---,0.01,VWS V14.01,2013-05-08 21:42:00,
2013-05-08 16:47:00,77.4,59.5,29.94,SE,144,0.0,4.0,54,0.00,,---,0.01,VWS V14.01,2013-05-08 21:47:00,
2013-05-08 16:50:00,77.3,59.4,29.94,SE,144,0.0,4.0,54,0.00,,---,0.01,VWS V14.01,2013-05-08 21:50:00,
2013-05-08 16:52:00,77.1,59.7,29.94,SE,127,0.0,2.0,55,0.01,,---,0.02,VWS V14.01,2013-05-08 21:52:00,
2013-05-08 16:57:00,77.0,59.1,29.94,ESE,106,0.0,3.0,54,0.01,,---,0.02,VWS V14.01,2013-05-08 21:57:00,
2013-05-08 17:00:00,77.0,60.1,29.94,ESE,109,0.0,3.0,56,0.01,,---,0.02,VWS V14.01,2013-05-08 22:00:00,
2013-05-08 17:02:00,76.7,59.3,29.94,SE,146,0.0,2.0,55,0.01,,---,0.02,VWS V14.01,2013-05-08 22:02:00,
2013-05-08 17:07:00,76.5,59.2,29.94,NW,313,0.0,3.0,55,0.01,,---,0.02,VWS V14.01,2013-05-08 22:07:00,
2013-05-08 17:10:00,76.4,59.1,29.94,NW,313,0.0,3.0,55,0.01,,---,0.02,VWS V14.01,2013-05-08 22:10:00,
2013-05-08 17:12:00,76.0,58.7,29.94,NE,51,2.0,3.0,55,0.01,,---,0.02,VWS V14.01,2013-05-08 22:12:00,
2013-05-08 17:17:00,75.8,58.5,29.94,North,355,2.0,4.0,55,0.01,,---,0.02,VWS V14.01,2013-05-08 22:17:00,
2013-05-08 17:20:00,75.8,58.5,29.94,SSE,155,1.0,4.0,55,0.01,,---,0.02,VWS V14.01,2013-05-08 22:20:00,
2013-05-08 17:22:00,75.7,58.9,29.94,ESE,123,0.0,4.0,56,0.01,,---,0.02,VWS V14.01,2013-05-08 22:22:00,
2013-05-08 17:27:00,75.5,58.7,29.94,SSW,193,3.0,4.0,56,0.01,,---,0.02,VWS V14.01,2013-05-08 22:27:00,
2013-05-08 17:30:00,75.5,58.7,29.94,SW,230,3.0,4.0,56,0.01,,---,0.02,VWS V14.01,2013-05-08 22:30:00,
2013-05-08 17:32:00,75.4,58.6,29.94,SW,218,2.0,4.0,56,0.01,,---,0.02,VWS V14.01,2013-05-08 22:32:00,
2013-05-08 17:37:00,75.2,58.4,29.94,SSE,166,0.0,4.0,56,0.01,,---,0.02,VWS V14.01,2013-05-08 22:37:00,
2013-05-08 17:40:00,75.2,58.4,29.94,SSE,167,1.0,4.0,56,0.01,,---,0.02,VWS V14.01,2013-05-08 22:40:00,
2013-05-08 17:42:00,75.1,58.8,29.94,ESE,113,2.0,4.0,57,0.01,,---,0.02,VWS V14.01,2013-05-08 22:42:00,
2013-05-08 17:47:00,75.1,59.3,29.94,SSE,168,1.0,7.0,58,0.01,,---,0.02,VWS V14.01,2013-05-08 22:47:00,
2013-05-08 17:50:00,75.0,58.8,29.94,SSE,168,0.0,7.0,57,0.01,,---,0.02,VWS V14.01,2013-05-08 22:50:00,
2013-05-08 17:52:00,75.1,59.3,29.94,SSW,208,0.0,4.0,58,0.01,,---,0.02,VWS V14.01,2013-05-08 22:52:00,
2013-05-08 17:57:00,75.1,58.8,29.94,NE,34,0.0,4.0,57,0.01,,---,0.02,VWS V14.01,2013-05-08 22:57:00,
2013-05-08 18:00:00,75.1,59.3,29.94,NW,317,1.0,4.0,58,0.01,,---,0.02,VWS V14.01,2013-05-08 23:00:00,
2013-05-08 18:02:00,74.9,59.1,29.94,NW,317,2.0,2.0,58,0.00,,---,0.02,VWS V14.01,2013-05-08 23:02:00,
2013-05-08 18:08:00,74.7,59.0,29.94,NNW,346,0.0,4.0,58,0.00,,---,0.02,VWS V14.01,2013-05-08 23:08:00,
2013-05-08 18:10:00,74.7,59.0,29.94,NNW,346,0.0,4.0,58,0.00,,---,0.02,VWS V14.01,2013-05-08 23:10:00,
2013-05-08 18:13:00,74.5,58.8,29.94,East,82,0.0,1.0,58,0.00,,---,0.02,VWS V14.01,2013-05-08 23:13:00,
2013-05-08 18:18:00,74.3,59.1,29.94,SW,236,1.0,3.0,59,0.00,,---,0.02,VWS V14.01,2013-05-08 23:18:00,
2013-05-08 18:20:00,74.3,59.1,29.94,SW,236,2.0,3.0,59,0.00,,---,0.02,VWS V14.01,2013-05-08 23:20:00,
2013-05-08 18:23:00,74.2,59.0,29.94,SW,236,0.0,2.0,59,0.00,,---,0.02,VWS V14.01,2013-05-08 23:23:00,
2013-05-08 18:28:00,74.0,59.2,29.93,SW,219,1.0,2.0,60,0.00,,---,0.02,VWS V14.01,2013-05-08 23:28:00,
2013-05-08 18:30:00,74.1,59.3,29.93,SW,219,1.0,2.0,60,0.00,,---,0.02,VWS V14.01,2013-05-08 23:30:00,
2013-05-08 18:33:00,74.0,59.2,29.93,SW,219,1.0,1.0,60,0.00,,---,0.02,VWS V14.01,2013-05-08 23:33:00,
2013-05-08 18:38:00,74.0,59.2,29.93,SW,219,0.0,1.0,60,0.00,,---,0.02,VWS V14.01,2013-05-08 23:38:00,
2013-05-08 18:40:00,74.0,59.2,29.93,SW,219,0.0,1.0,60,0.00,,---,0.02,VWS V14.01,2013-05-08 23:40:00,
2013-05-08 18:43:00,74.0,59.2,29.93,ESE,113,0.0,2.0,60,0.00,,---,0.02,VWS V14.01,2013-05-08 23:43:00,
2013-05-08 18:48:00,74.0,59.7,29.93,SE,134,0.0,4.0,61,0.00,,---,0.02,VWS V14.01,2013-05-08 23:48:00,
2013-05-08 18:50:00,74.0,59.7,29.93,SE,134,0.0,4.0,61,0.00,,---,0.02,VWS V14.01,2013-05-08 23:50:00,
2013-05-08 18:53:00,73.9,59.6,29.93,SE,134,0.0,4.0,61,0.00,,---,0.02,VWS V14.01,2013-05-08 23:53:00,
2013-05-08 18:58:00,73.9,59.6,29.93,SE,134,0.0,4.0,61,0.00,,---,0.02,VWS V14.01,2013-05-08 23:58:00,
2013-05-08 19:00:00,73.9,59.6,29.93,SE,134,0.0,4.0,61,0.00,,---,0.02,VWS V14.01,2013-05-09 00:00:00,
2013-05-08 19:03:00,73.8,59.5,29.92,SSW,209,0.0,3.0,61,0.00,,---,0.02,VWS V14.01,2013-05-09 00:03:00,
2013-05-08 19:08:00,73.7,59.4,29.92,SSW,209,0.0,0.0,61,0.00,,---,0.02,VWS V14.01,2013-05-09 00:08:00,
2013-05-08 19:10:00,73.7,59.4,29.92,SSW,209,0.0,3.0,61,0.00,,---,0.02,VWS V14.01,2013-05-09 00:10:00,
2013-05-08 19:13:00,73.5,59.2,29.92,SSW,213,0.0,1.0,61,0.00,,---,0.02,VWS V14.01,2013-05-09 00:13:00,
2013-05-08 19:18:00,73.3,59.5,29.92,ENE,64,1.0,1.0,62,0.00,,---,0.02,VWS V14.01,2013-05-09 00:18:00,
2013-05-08 19:20:00,73.3,59.5,29.92,ENE,64,0.0,3.0,62,0.00,,---,0.02,VWS V14.01,2013-05-09 00:20:00,
2013-05-08 19:23:00,73.1,59.3,29.92,East,88,1.0,4.0,62,0.00,,---,0.02,VWS V14.01,2013-05-09 00:23:00,
2013-05-08 19:28:00,73.0,59.7,29.92,ESE,122,1.0,1.0,63,0.00,,---,0.02,VWS V14.01,2013-05-09 00:28:00,
2013-05-08 19:30:00,73.0,59.7,29.92,SE,124,1.0,4.0,63,0.00,,---,0.02,VWS V14.01,2013-05-09 00:30:00,
2013-05-08 19:33:00,72.9,59.6,29.92,East,84,0.0,4.0,63,0.00,,---,0.02,VWS V14.01,2013-05-09 00:33:00,
2013-05-08 19:38:00,72.8,59.5,29.92,SE,143,0.0,1.0,63,0.00,,---,0.02,VWS V14.01,2013-05-09 00:38:00,
2013-05-08 19:40:00,72.8,59.5,29.92,SE,143,0.0,5.0,63,0.00,,---,0.02,VWS V14.01,2013-05-09 00:40:00,
2013-05-08 19:43:00,72.7,59.8,29.93,ENE,71,1.0,4.0,64,0.00,,---,0.02,VWS V14.01,2013-05-09 00:43:00,
2013-05-08 19:48:00,72.6,59.7,29.93,ENE,71,0.0,1.0,64,0.00,,---,0.02,VWS V14.01,2013-05-09 00:48:00,
2013-05-08 19:50:00,72.6,59.7,29.93,ENE,71,0.0,4.0,64,0.00,,---,0.02,VWS V14.01,2013-05-09 00:50:00,
2013-05-08 19:53:00,72.5,59.6,29.93,ENE,71,0.0,1.0,64,0.00,,---,0.02,VWS V14.01,2013-05-09 00:53:00,
2013-05-08 19:58:00,72.4,59.5,29.93,ENE,71,0.0,0.0,64,0.00,,---,0.02,VWS V14.01,2013-05-09 00:58:00,
2013-05-08 20:00:00,72.4,59.5,29.93,ENE,71,0.0,1.0,64,0.00,,---,0.02,VWS V14.01,2013-05-09 01:00:00,
2013-05-08 20:03:00,72.2,59.8,29.92,ENE,71,0.0,1.0,65,0.00,,---,0.02,VWS V14.01,2013-05-09 01:03:00,
2013-05-08 20:08:00,72.0,59.6,29.92,ENE,71,0.0,0.0,65,0.00,,---,0.02,VWS V14.01,2013-05-09 01:08:00,
2013-05-08 20:10:00,72.0,59.6,29.92,ENE,71,0.0,1.0,65,0.00,,---,0.02,VWS V14.01,2013-05-09 01:10:00,
2013-05-08 20:13:00,71.8,59.8,29.92,ENE,71,0.0,0.0,66,0.00,,---,0.02,VWS V14.01,2013-05-09 01:13:00,
2013-05-08 20:18:00,71.6,59.7,29.92,ENE,71,0.0,0.0,66,0.00,,---,0.02,VWS V14.01,2013-05-09 01:18:00,
2013-05-08 20:20:00,71.6,59.7,29.92,ENE,71,0.0,0.0,66,0.00,,---,0.02,VWS V14.01,2013-05-09 01:20:00,
2013-05-08 20:23:00,71.3,59.8,29.92,ENE,71,0.0,0.0,67,0.00,,---,0.02,VWS V14.01,2013-05-09 01:23:00,
2013-05-08 20:28:00,71.1,59.6,29.92,ENE,71,0.0,0.0,67,0.00,,---,0.02,VWS V14.01,2013-05-09 01:28:00,
2013-05-08 20:30:00,71.2,59.7,29.92,ENE,71,0.0,0.0,67,0.00,,---,0.02,VWS V14.01,2013-05-09 01:30:00,
2013-05-08 20:33:00,71.0,59.9,29.93,ENE,71,0.0,0.0,68,0.00,,---,0.02,VWS V14.01,2013-05-09 01:33:00,
2013-05-08 20:38:00,70.8,59.7,29.93,ENE,71,0.0,0.0,68,0.00,,---,0.02,VWS V14.01,2013-05-09 01:38:00,
2013-05-08 20:40:00,70.8,59.3,29.93,ENE,71,0.0,1.0,67,0.00,,---,0.02,VWS V14.01,2013-05-09 01:40:00,
2013-05-08 20:43:00,70.6,59.5,29.93,ENE,71,0.0,1.0,68,0.00,,---,0.02,VWS V14.01,2013-05-09 01:43:00,
2013-05-08 20:49:00,70.5,59.4,29.93,ENE,71,0.0,0.0,68,0.00,,---,0.02,VWS V14.01,2013-05-09 01:49:00,
2013-05-08 20:50:00,70.5,59.4,29.93,ENE,71,0.0,1.0,68,0.00,,---,0.02,VWS V14.01,2013-05-09 01:50:00,
2013-05-08 20:54:00,70.4,59.8,29.93,ENE,71,0.0,1.0,69,0.00,,---,0.02,VWS V14.01,2013-05-09 01:54:00,
2013-05-08 20:59:00,70.2,59.2,29.93,ENE,71,0.0,0.0,68,0.00,,---,0.02,VWS V14.01,2013-05-09 01:59:00,
2013-05-08 21:00:00,70.2,59.6,29.93,ENE,71,0.0,1.0,69,0.00,,---,0.02,VWS V14.01,2013-05-09 02:00:00,
2013-05-08 21:04:00,70.1,59.5,29.93,ENE,71,0.0,1.0,69,0.00,,---,0.02,VWS V14.01,2013-05-09 02:04:00,
2013-05-08 21:09:00,70.0,59.4,29.93,ENE,71,0.0,0.0,69,0.00,,---,0.02,VWS V14.01,2013-05-09 02:09:00,
2013-05-08 21:10:00,70.0,59.4,29.93,ENE,71,0.0,1.0,69,0.00,,---,0.02,VWS V14.01,2013-05-09 02:10:00,
2013-05-08 21:14:00,69.9,59.3,29.93,ENE,71,0.0,0.0,69,0.00,,---,0.02,VWS V14.01,2013-05-09 02:14:00,
2013-05-08 21:19:00,69.7,59.5,29.93,ENE,71,0.0,0.0,70,0.00,,---,0.02,VWS V14.01,2013-05-09 02:19:00,
2013-05-08 21:20:00,69.7,59.5,29.93,ENE,71,0.0,0.0,70,0.00,,---,0.02,VWS V14.01,2013-05-09 02:20:00,
2013-05-08 21:24:00,69.6,59.4,29.94,ENE,71,0.0,0.0,70,0.00,,---,0.02,VWS V14.01,2013-05-09 02:24:00,
2013-05-08 21:29:00,69.5,59.3,29.94,ENE,71,0.0,0.0,70,0.00,,---,0.02,VWS V14.01,2013-05-09 02:29:00,
2013-05-08 21:30:00,69.5,59.3,29.94,ENE,71,0.0,0.0,70,0.00,,---,0.02,VWS V14.01,2013-05-09 02:30:00,
2013-05-08 21:34:00,69.4,59.6,29.94,ENE,71,0.0,0.0,71,0.00,,---,0.02,VWS V14.01,2013-05-09 02:34:00,
2013-05-08 21:39:00,69.2,59.4,29.94,ENE,71,0.0,0.0,71,0.00,,---,0.02,VWS V14.01,2013-05-09 02:39:00,
2013-05-08 21:40:00,69.3,59.5,29.94,ENE,71,0.0,0.0,71,0.00,,---,0.02,VWS V14.01,2013-05-09 02:40:00,
2013-05-08 21:44:00,69.1,59.3,29.94,ENE,71,0.0,0.0,71,0.00,,---,0.02,VWS V14.01,2013-05-09 02:44:00,
2013-05-08 21:49:00,69.0,59.2,29.94,ENE,71,0.0,0.0,71,0.00,,---,0.02,VWS V14.01,2013-05-09 02:49:00,
2013-05-08 21:50:00,69.0,59.2,29.94,ENE,71,0.0,0.0,71,0.00,,---,0.02,VWS V14.01,2013-05-09 02:50:00,
2013-05-08 21:54:00,68.8,59.4,29.94,ENE,71,0.0,0.0,72,0.00,,---,0.02,VWS V14.01,2013-05-09 02:54:00,
2013-05-08 21:59:00,68.6,59.2,29.94,ENE,71,0.0,0.0,72,0.00,,---,0.02,VWS V14.01,2013-05-09 02:59:00,
2013-05-08 22:00:00,68.6,59.2,29.94,ENE,71,0.0,0.0,72,0.00,,---,0.02,VWS V14.01,2013-05-09 03:00:00,
2013-05-08 22:04:00,68.3,58.9,29.93,ENE,71,0.0,0.0,72,0.00,,---,0.02,VWS V14.01,2013-05-09 03:04:00,
2013-05-08 22:09:00,68.1,59.1,29.94,ENE,71,0.0,0.0,73,0.00,,---,0.02,VWS V14.01,2013-05-09 03:09:00,
2013-05-08 22:10:00,68.2,58.8,29.93,ENE,71,0.0,0.0,72,0.00,,---,0.02,VWS V14.01,2013-05-09 03:10:00,
2013-05-08 22:14:00,67.9,58.9,29.94,ENE,71,0.0,0.0,73,0.00,,---,0.02,VWS V14.01,2013-05-09 03:14:00,
2013-05-08 22:19:00,67.7,59.1,29.94,ENE,71,0.0,0.0,74,0.00,,---,0.02,VWS V14.01,2013-05-09 03:19:00,
2013-05-08 22:20:00,67.7,58.7,29.93,ENE,71,0.0,0.0,73,0.00,,---,0.02,VWS V14.01,2013-05-09 03:20:00,
2013-05-08 22:24:00,67.5,58.9,29.94,ENE,71,0.0,0.0,74,0.00,,---,0.02,VWS V14.01,2013-05-09 03:24:00,
2013-05-08 22:29:00,67.3,58.7,29.93,ENE,71,0.0,1.0,74,0.00,,---,0.02,VWS V14.01,2013-05-09 03:29:00,
2013-05-08 22:30:00,67.4,58.8,29.93,ENE,71,0.0,1.0,74,0.00,,---,0.02,VWS V14.01,2013-05-09 03:30:00,
2013-05-08 22:34:00,67.2,58.6,29.93,ENE,71,0.0,2.0,74,0.00,,---,0.02,VWS V14.01,2013-05-09 03:34:00,
2013-05-08 22:39:00,67.1,58.5,29.94,ENE,71,1.0,3.0,74,0.00,,---,0.02,VWS V14.01,2013-05-09 03:39:00,
2013-05-08 22:40:00,67.1,58.5,29.93,ENE,71,0.0,2.0,74,0.00,,---,0.02,VWS V14.01,2013-05-09 03:40:00,
2013-05-08 22:44:00,67.0,58.5,29.94,ENE,71,0.0,3.0,74,0.00,,---,0.02,VWS V14.01,2013-05-09 03:44:00,
2013-05-08 22:49:00,66.9,58.3,29.94,ENE,73,0.0,2.0,74,0.00,,---,0.02,VWS V14.01,2013-05-09 03:49:00,
2013-05-08 22:50:00,66.9,58.3,29.94,South,176,0.0,3.0,74,0.00,,---,0.02,VWS V14.01,2013-05-09 03:50:00,
2013-05-08 22:54:00,66.8,58.3,29.93,ENE,73,0.0,2.0,74,0.00,,---,0.02,VWS V14.01,2013-05-09 03:54:00,
2013-05-08 22:59:00,66.7,58.2,29.93,ENE,73,0.0,1.0,74,0.00,,---,0.02,VWS V14.01,2013-05-09 03:59:00,
2013-05-08 23:00:00,66.8,58.3,29.93,ENE,73,0.0,2.0,74,0.00,,---,0.02,VWS V14.01,2013-05-09 04:00:00,
2013-05-08 23:01:00,66.7,58.2,29.93,ENE,73,0.0,1.0,74,0.00,,---,0.02,VWS V14.01,2013-05-09 04:01:00,
2013-05-08 23:02:00,66.7,58.2,29.93,ENE,73,0.0,1.0,74,0.00,,---,0.02,VWS V14.01,2013-05-09 04:02:00,
2013-05-08 23:07:00,66.6,58.1,29.92,ENE,73,2.0,2.0,74,0.00,,---,0.02,VWS V14.01,2013-05-09 04:07:00,
2013-05-08 23:10:00,66.6,58.1,29.92,ENE,73,0.0,2.0,74,0.00,,---,0.02,VWS V14.01,2013-05-09 04:10:00,
2013-05-08 23:12:00,66.5,58.0,29.92,ENE,73,0.0,1.0,74,0.00,,---,0.02,VWS V14.01,2013-05-09 04:12:00,
2013-05-08 23:17:00,66.5,58.0,29.93,ENE,73,0.0,1.0,74,0.00,,---,0.02,VWS V14.01,2013-05-09 04:17:00,
2013-05-08 23:20:00,66.5,58.0,29.93,ENE,73,0.0,1.0,74,0.00,,---,0.02,VWS V14.01,2013-05-09 04:20:00,
2013-05-08 23:22:00,66.5,58.0,29.94,ENE,73,0.0,0.0,74,0.00,,---,0.02,VWS V14.01,2013-05-09 04:22:00,
2013-05-08 23:27:00,66.4,57.9,29.95,East,82,0.0,2.0,74,0.00,,---,0.02,VWS V14.01,2013-05-09 04:27:00,
2013-05-08 23:30:00,66.4,57.9,29.95,East,82,0.0,2.0,74,0.00,,---,0.02,VWS V14.01,2013-05-09 04:30:00,
2013-05-08 23:32:00,66.4,57.9,29.95,SSW,196,4.0,4.0,74,0.00,,---,0.02,VWS V14.01,2013-05-09 04:32:00,
2013-05-08 23:37:00,66.4,58.6,29.95,South,187,0.0,4.0,76,0.00,,---,0.02,VWS V14.01,2013-05-09 04:37:00,
2013-05-08 23:40:00,66.4,58.6,29.95,NE,45,1.0,4.0,76,0.00,,---,0.02,VWS V14.01,2013-05-09 04:40:00,
2013-05-08 23:42:00,66.3,58.5,29.95,NE,54,1.0,1.0,76,0.00,,---,0.02,VWS V14.01,2013-05-09 04:42:00,
2013-05-08 23:47:00,66.2,59.2,29.95,ESE,113,1.0,2.0,78,0.00,,---,0.02,VWS V14.01,2013-05-09 04:47:00,
2013-05-08 23:50:00,66.2,59.2,29.95,SSE,155,0.0,4.0,78,0.00,,---,0.02,VWS V14.01,2013-05-09 04:50:00,
2013-05-08 23:52:00,66.0,59.3,29.94,NNE,18,0.0,2.0,79,0.00,,---,0.02,VWS V14.01,2013-05-09 04:52:00,
2013-05-08 23:57:00,65.6,59.3,29.94,SW,227,0.0,4.0,80,0.00,,---,0.02,VWS V14.01,2013-05-09 04:57:00,